This demonstration page uses our WeatherBlox Daily Observations layout. Learn more.

Left ArrowRight Arrow

39.92423, -83.80882

Hourly Observations for September 26, 2022

Temp ( °F °C ) Dew Point ( °F °C ) Humidity (%) Winds ( mph kmh ) Pressure ( in mb ) Visibility ( mi km ) Precip ( " mm )
12:56 am 00:56 Mostly Clear 58 14.4 54 12.2 87 87 W 7 11 29.78 1009 10 16 0.00 0.00
1:56 am 01:56 Clear 54 12.2 54 12.2 100 100 SSW 6 9 29.77 1008 10 16 0.00 0.00
2:56 am 02:56 Mostly Clear 55 12.8 55 12.8 100 100 W 8 13 29.78 1009 10 16 0.00 0.00
3:56 am 03:56 Cloudy 56 13.3 55 12.8 97 97 WSW 7 11 29.78 1008 10 16 0.00 0.00
4:56 am 04:56 Mostly Cloudy 54 12.2 54 12.2 100 100 WSW 6 9 29.77 1008 10 16 0.00 0.00
5:56 am 05:56 Mostly Cloudy 52 11.1 52 11.1 100 100 W 6 9 29.77 1008 10 16 0.00 0.00
6:56 am 06:56 Partly Cloudy 52 11.1 52 11.1 100 100 WSW 7 11 29.79 1009 10 16 0.00 0.00
7:56 am 07:56 Partly Cloudy 52 11.1 52 11.1 100 100 W 9 15 29.81 1009 10 16 0.00 0.00
8:56 am 08:56 Mostly Cloudy 56 13.3 50 10 80 80 W 9 15 29.82 1010 10 16 0.00 0.00
9:56 am 09:56 Sunny 60 15.6 48 8.9 64 64 W 13 20 29.83 1010 10 16 0.00 0.00
10:56 am 10:56 Sunny 62 16.7 47 8.3 58 58 W 17 28 29.83 1010 10 16 0.00 0.00
11:56 am 11:56 Mostly Cloudy 65 18.3 44 6.7 47 47 WSW 20 31 29.83 1010 10 16 0.00 0.00
12:56 pm 12:56 Mostly Cloudy 63 17.2 40 4.4 43 43 W 16 26 29.83 1010 10 16 0.00 0.00
1:56 pm 13:56 Partly Cloudy 65 18.3 38 3.3 37 37 W 20 31 29.83 1010 10 16 0.00 0.00
2:56 pm 14:56 Mostly Cloudy 69 20.6 39 3.9 33 33 W 15 24 29.83 1010 10 16 0.00 0.00
3:56 pm 15:56 Mostly Cloudy 65 18.3 39 3.9 38 38 W 14 22 29.84 1010 10 16 0.00 0.00
4:56 pm 16:56 Cloudy 64 17.8 40 4.4 41 41 W 17 28 29.85 1011 10 16 0.00 0.00
5:56 pm 17:56 Cloudy 62 16.7 40 4.4 44 44 W 17 28 29.87 1012 10 16 0.00 0.00
6:56 pm 18:56 Cloudy 61 16.1 41 5 48 48 W 10 17 29.88 1012 10 16 0.00 0.00
7:56 pm 19:56 Mostly Cloudy 57 13.9 42 5.6 57 57 W 6 9 29.90 1012 10 16 0.00 0.00
8:56 pm 20:56 Mostly Cloudy 53 11.7 43 6.1 68 68 W 6 9 29.92 1013 10 16 0.00 0.00
9:56 pm 21:56 Cloudy 51 10.6 44 6.7 77 77 W 6 9 29.93 1014 10 16 0.00 0.00
10:56 pm 22:56 Clear 49 9.4 44 6.7 83 83 W 6 9 29.94 1014 10 16 0.00 0.00
11:56 pm 23:56 Clear 49 9.4 44 6.7 83 83 W 6 9 29.95 1014 10 16 0.00 0.00

Powered by AerisWeather